Regional Weather Roundup
Issued by NWS

Home | Current Version | Previous Version | Text Only | Print | Product List | Glossary On
Versions: 1 2 3 4 5 6 7 8 9 10 11 12 13 14 15 16 17 18 19 20 21 22 23 24 25 26 27 28 29 30 31 32 33 34 35 36 37 38 39 40 41 42 43 44 45 46 47 48 49 50
000
ASUS44 KLIX 281411
RWRLA
LOUISIANA WEATHER ROUNDUP
NATIONAL WEATHER SERVICE NEW ORLEANS LA
900 AM CDT FRI AUG 28 2015

NOTE: "FAIR" INDICATES FEW OR NO CLOUDS BELOW 12,000 FEET WITH NO
      SIGNIFICANT WEATHER AND/OR OBSTRUCTIONS TO VISIBILITY.
      SKY/WX - SKY CONDITION AND SIGNIFICANT WEATHER.
      TMP - AIR TEMPERATURE.    DP   - DEWPOINT TEMPERATURE.
      RH  - RELATIVE HUMIDITY.  PRES - PRESSURE.
      HX  - HEAT INDEX.         WCI  - WIND CHILL INDEX.

*  THESE STATIONS ARE NOT NWS OR FAA STATIONS AND ARE NOT UNDER
   NWS QUALITY CONTROL.

LAZ040-048-061>063-065-066-069-281500-
SOUTHEAST LOUISIANA

CITY           SKY/WX    TMP DP  RH WIND       PRES   REMARKS
N.O. AUDUBON   NOT AVBL
N.O. INTL ARPT MOSUNNY   81  66  60 NE10      30.01R
N.O. LAKEFRONT MOSUNNY   78  66  66 NE9       30.02R
N.O. DOWNTOWN* FAIR      81  66  61 N5        30.02R
RESERVE*       FAIR      79  66  66 N6        30.02R
SLIDELL        SUNNY     76  67  73 NE6       30.01R
BATON ROUGE    SUNNY     74  62  66 E6        30.03R
BOOTHVILLE     SUNNY     83  73  72 VRB5      29.99R
BELLE CHASSE   MOSUNNY   79  68  69 NE8       30.00R
BOGALUSA*      NOT AVBL
GALLIANO*      SUNNY     80  70  71 MISG      30.00S
NEW ROADS*     FAIR      74  63  67 CALM      30.03R
GONZALES*      FAIR      75  63  66 NE5       30.02R
HAMMOND*       SUNNY     77  61  57 NE3       30.03S
HOUMA*         SUNNY     77  68  73 N7        30.01R
PORT FOURCHON* SUNNY     81  66  61 N8        30.01R

$$

LAZ041-044-053-054-281500-
SOUTHWEST LOUISIANA

CITY           SKY/WX    TMP DP  RH WIND       PRES   REMARKS
LAKE CHARLES   SUNNY     76  64  66 NE7       30.02R
LAFAYETTE      SUNNY     73  65  75 CALM      30.02R
PATTERSON      SUNNY     75  66  73 E5        30.03R
SALT POINT       N/A     76  68  76 CALM      30.00R
NEW IBERIA     SUNNY     76  66  71 NE5       30.03R
CHENAULT AIRPK NOT AVBL

$$

LAZ027-028-281500-
CENTRAL LOUISIANA

CITY           SKY/WX    TMP DP  RH WIND       PRES   REMARKS
FORT POLK      SUNNY     73  62  70 VRB3      30.02R
ALEXANDRIA INT SUNNY     72  61  68 CALM      30.03R
ALEXANDRIA     SUNNY     74  62  66 CALM      30.04R

$$

LAZ001-002-281500-
NORTHWEST LOUISIANA

CITY           SKY/WX    TMP DP  RH WIND       PRES   REMARKS
SHREVEPORT     SUNNY     72  62  71 SE5       30.04R
BARKSDALE AFB  SUNNY     69  61  75 SE3       30.04R
DTN SHREVEPORT SUNNY     70  61  73 CALM      30.05R

$$

LAZ014-016-281500-
NORTHEAST LOUISIANA

CITY           SKY/WX    TMP DP  RH WIND       PRES   REMARKS
MONROE         SUNNY     73  61  65 E3        30.06R
TALLULAH       SUNNY     75  62  64 CALM      30.05R

$$



USA.gov is the U.S. government's official web portal to all federal, state and local government web resources and services.